WAT332 SOCA-GVAC

Flight info

Callsign WAT332
Flight time N/A
Altitude 37000
Route 40THR DCT 0650N DCT 09N043W DCT GOGSO/N0460F390 DCT KEPAS
Aircraft CL60/M-SBDE1E2E3FGHIJ1J4J5J7M3RWXYZ/LB1V1D1

Departure

Time 2026-04-29 17:08
Airport Cayenne – Félix Eboué Airport (SOCA)

Arrival

Time N/A
Airport Amílcar Cabral International Airport (GVAC)
Time Latitude Longitude Altitude Speed Heading
2026-04-29 16:46 4.82330 -52.35995 34 ft 0 kts 159°
2026-04-29 17:02 4.82327 -52.35994 34 ft 0 kts 158°
2026-04-29 17:02 4.82315 -52.35990 34 ft 2 kts 181°
2026-04-29 17:02 4.82295 -52.36011 34 ft 6 kts 245°
2026-04-29 17:02 4.82274 -52.36056 34 ft 4 kts 246°
2026-04-29 17:03 4.82240 -52.36071 34 ft 7 kts 176°
2026-04-29 17:03 4.82190 -52.36091 34 ft 10 kts 252°
2026-04-29 17:03 4.82159 -52.36165 33 ft 13 kts 245°
2026-04-29 17:03 4.82115 -52.36245 33 ft 11 kts 236°
2026-04-29 17:04 4.82042 -52.36244 33 ft 12 kts 155°
2026-04-29 17:04 4.81953 -52.36229 33 ft 14 kts 218°
2026-04-29 17:04 4.81905 -52.36330 32 ft 17 kts 245°
2026-04-29 17:04 4.81850 -52.36450 32 ft 20 kts 245°
2026-04-29 17:05 4.81786 -52.36587 31 ft 23 kts 245°
2026-04-29 17:05 4.81715 -52.36741 31 ft 25 kts 245°
2026-04-29 17:05 4.81638 -52.36910 31 ft 27 kts 246°
2026-04-29 17:05 4.81556 -52.37087 32 ft 28 kts 245°
2026-04-29 17:06 4.81474 -52.37265 33 ft 19 kts 245°
2026-04-29 17:06 4.81446 -52.37364 35 ft 6 kts 286°
2026-04-29 17:06 4.81446 -52.37413 35 ft 8 kts 225°
2026-04-29 17:06 4.81413 -52.37412 35 ft 2 kts 123°
2026-04-29 17:07 4.81415 -52.37394 35 ft 0 kts 65°
2026-04-29 17:07 4.81425 -52.37373 35 ft 19 kts 65°
2026-04-29 17:07 4.81607 -52.36978 31 ft 106 kts 65°
2026-04-29 17:07 4.82015 -52.36095 232 ft 158 kts 65°
2026-04-29 17:08 4.82489 -52.35040 917 ft 175 kts 65°
2026-04-29 17:08 4.83004 -52.33925 1782 ft 184 kts 64°
2026-04-29 17:08 4.83546 -52.32777 2771 ft 187 kts 65°
2026-04-29 17:08 4.84091 -52.31614 3650 ft 188 kts 65°
2026-04-29 17:09 4.84646 -52.30406 4264 ft 205 kts 66°
2026-04-29 17:09 4.85292 -52.29008 4822 ft 232 kts 65°
2026-04-29 17:09 4.86027 -52.27525 5820 ft 240 kts 64°
2026-04-29 17:09 4.86792 -52.26003 6791 ft 248 kts 64°
2026-04-29 17:10 4.87573 -52.24448 7610 ft 262 kts 64°
2026-04-29 17:10 4.88425 -52.22751 8410 ft 276 kts 64°
2026-04-29 17:10 4.89299 -52.21014 9341 ft 283 kts 65°
2026-04-29 17:10 4.90175 -52.19272 10284 ft 288 kts 65°
2026-04-29 17:11 4.91081 -52.17470 11259 ft 292 kts 65°
2026-04-29 17:11 4.91995 -52.15655 12146 ft 297 kts 65°
2026-04-29 17:11 4.92955 -52.13743 12609 ft 318 kts 65°
2026-04-29 17:11 4.93975 -52.11713 13167 ft 332 kts 65°
2026-04-29 17:12 4.95024 -52.09628 13886 ft 339 kts 65°
2026-04-29 17:12 4.96086 -52.07519 14653 ft 344 kts 65°
2026-04-29 17:12 4.97169 -52.05367 15419 ft 348 kts 65°
2026-04-29 17:12 4.97903 -52.03908 15903 ft 351 kts 65°
2026-04-29 17:13 4.99361 -52.01009 16855 ft 356 kts 66°
2026-04-29 17:13 5.00490 -51.98765 17558 ft 360 kts 66°
2026-04-29 17:13 5.01620 -51.96520 18266 ft 362 kts 66°
2026-04-29 17:13 5.02745 -51.94283 18962 ft 364 kts 66°
2026-04-29 17:14 5.03892 -51.92003 19638 ft 366 kts 66°
2026-04-29 17:14 5.05026 -51.89748 20277 ft 369 kts 66°
2026-04-29 17:14 5.06191 -51.87431 20884 ft 371 kts 66°
2026-04-29 17:14 5.07358 -51.85110 21479 ft 374 kts 66°
2026-04-29 17:15 5.08524 -51.82791 22054 ft 376 kts 66°
2026-04-29 17:15 5.09703 -51.80444 22609 ft 379 kts 66°
2026-04-29 17:15 5.10894 -51.78073 23091 ft 384 kts 66°
2026-04-29 17:15 5.12113 -51.75647 23567 ft 389 kts 66°
2026-04-29 17:16 5.13327 -51.73231 24048 ft 394 kts 65°
2026-04-29 17:16 5.14564 -51.70770 24504 ft 398 kts 65°
2026-04-29 17:16 5.15827 -51.68256 24964 ft 403 kts 65°
2026-04-29 17:16 5.17084 -51.65754 25415 ft 406 kts 65°
2026-04-29 17:17 5.18358 -51.63216 25852 ft 410 kts 65°
2026-04-29 17:17 5.19647 -51.60648 26242 ft 415 kts 65°
2026-04-29 17:17 5.20961 -51.58032 26659 ft 418 kts 65°
2026-04-29 17:17 5.22286 -51.55394 27053 ft 422 kts 64°
2026-04-29 17:18 5.23604 -51.52768 27448 ft 426 kts 64°
2026-04-29 17:18 5.24943 -51.50102 27819 ft 429 kts 64°
2026-04-29 17:18 5.26294 -51.47410 28165 ft 434 kts 64°
2026-04-29 17:18 5.27658 -51.44692 28521 ft 437 kts 64°
2026-04-29 17:19 5.29031 -51.41957 28881 ft 440 kts 64°
2026-04-29 17:19 5.30411 -51.39205 29258 ft 443 kts 64°
2026-04-29 17:19 5.31789 -51.36458 29640 ft 445 kts 63°
2026-04-29 17:19 5.33188 -51.33669 30022 ft 447 kts 63°
2026-04-29 17:20 5.34590 -51.30875 30344 ft 450 kts 63°
2026-04-29 17:20 5.36004 -51.28056 30636 ft 453 kts 63°
2026-04-29 17:20 5.37427 -51.25218 30923 ft 456 kts 63°
2026-04-29 17:20 5.38847 -51.22385 31232 ft 458 kts 63°
2026-04-29 17:21 5.40279 -51.19527 31841 ft 452 kts 62°
2026-04-29 17:21 5.41675 -51.16741 32618 ft 442 kts 62°
2026-04-29 17:21 5.43039 -51.14016 33378 ft 434 kts 62°
2026-04-29 17:21 5.44368 -51.11362 34022 ft 428 kts 62°
2026-04-29 17:22 5.45706 -51.08691 34520 ft 426 kts 62°
2026-04-29 17:22 5.47027 -51.06054 34892 ft 426 kts 61°
2026-04-29 17:22 5.48368 -51.03377 35233 ft 426 kts 61°
2026-04-29 17:22 5.49679 -51.00759 35542 ft 426 kts 62°
2026-04-29 17:23 5.51018 -50.98086 35860 ft 426 kts 61°
2026-04-29 17:23 5.52338 -50.95448 36155 ft 426 kts 61°
2026-04-29 17:23 5.53679 -50.92768 36449 ft 426 kts 61°
2026-04-29 17:23 5.54997 -50.90135 36716 ft 426 kts 61°
2026-04-29 17:24 5.56325 -50.87481 36874 ft 429 kts 61°
2026-04-29 17:24 5.57669 -50.84798 36862 ft 433 kts 61°
2026-04-29 17:24 5.60368 -50.79401 36864 ft 432 kts 61°
2026-04-29 17:25 5.63055 -50.74027 36865 ft 433 kts 61°
2026-04-29 17:25 5.65791 -50.68557 36869 ft 445 kts 61°
2026-04-29 17:26 5.68602 -50.62933 36862 ft 455 kts 61°
2026-04-29 17:26 5.71464 -50.57206 36864 ft 464 kts 61°
2026-04-29 17:27 5.74391 -50.51347 36863 ft 472 kts 62°
2026-04-29 17:27 5.77332 -50.45455 36864 ft 475 kts 62°
2026-04-29 17:28 5.80285 -50.39538 36865 ft 475 kts 62°
2026-04-29 17:28 5.83255 -50.33585 36865 ft 474 kts 62°
2026-04-29 17:29 5.86207 -50.27666 36866 ft 474 kts 62°
2026-04-29 17:29 5.88660 -50.22747 36867 ft 474 kts 62°
2026-04-29 17:30 5.92097 -50.15853 36867 ft 475 kts 62°
2026-04-29 17:30 5.95059 -50.09909 36866 ft 475 kts 62°
2026-04-29 17:31 5.97998 -50.04010 36869 ft 475 kts 62°
2026-04-29 17:31 6.00887 -49.98006 36865 ft 475 kts 64°
2026-04-29 17:32 6.03519 -49.91990 36866 ft 474 kts 65°
2026-04-29 17:32 6.06188 -49.85897 36870 ft 474 kts 64°
2026-04-29 17:33 6.08832 -49.79859 36878 ft 474 kts 64°
2026-04-29 17:33 6.11488 -49.73795 36880 ft 475 kts 64°
2026-04-29 17:34 6.14155 -49.67702 36868 ft 476 kts 64°
2026-04-29 17:34 6.16816 -49.61624 36865 ft 476 kts 64°
2026-04-29 17:35 6.20801 -49.52515 36871 ft 476 kts 65°
2026-04-29 17:36 6.23450 -49.46458 36870 ft 475 kts 64°
2026-04-29 17:36 6.26115 -49.40364 36872 ft 475 kts 64°
2026-04-29 17:37 6.28761 -49.34311 36871 ft 474 kts 65°
2026-04-29 17:37 6.31403 -49.28262 36872 ft 474 kts 65°
2026-04-29 17:38 6.34051 -49.22200 36872 ft 475 kts 65°
2026-04-29 17:38 6.36711 -49.16108 36867 ft 476 kts 65°
2026-04-29 17:39 6.39365 -49.10027 36866 ft 476 kts 65°
2026-04-29 17:39 6.42012 -49.03960 36862 ft 475 kts 64°
2026-04-29 17:40 6.44655 -48.97902 36863 ft 475 kts 65°
2026-04-29 17:40 6.47309 -48.91814 36863 ft 475 kts 65°
2026-04-29 17:41 6.49945 -48.85766 36864 ft 475 kts 65°
2026-04-29 17:41 6.52602 -48.79666 36865 ft 475 kts 65°
2026-04-29 17:42 6.55257 -48.73571 36866 ft 475 kts 64°
2026-04-29 17:42 6.57890 -48.67522 36864 ft 475 kts 64°
2026-04-29 17:43 6.60534 -48.61445 36864 ft 475 kts 65°
2026-04-29 17:43 6.63184 -48.55353 36864 ft 475 kts 65°
2026-04-29 17:44 6.65829 -48.49269 36867 ft 475 kts 65°
2026-04-29 17:44 6.68456 -48.43228 36866 ft 475 kts 65°
2026-04-29 17:45 6.71096 -48.37150 36863 ft 474 kts 65°
2026-04-29 17:45 6.73735 -48.31075 36864 ft 474 kts 64°
2026-04-29 17:46 6.76360 -48.25029 36865 ft 474 kts 65°
2026-04-29 17:46 6.79003 -48.18940 36865 ft 474 kts 65°
2026-04-29 17:47 6.81639 -48.12864 36867 ft 475 kts 65°
2026-04-29 17:47 6.84282 -48.06768 36865 ft 474 kts 65°
2026-04-29 17:48 6.86901 -48.00727 36864 ft 474 kts 65°
2026-04-29 17:48 6.89527 -47.94668 36865 ft 473 kts 64°
2026-04-29 17:49 6.92165 -47.88576 36865 ft 473 kts 65°
2026-04-29 17:49 6.94785 -47.82525 36863 ft 473 kts 65°
2026-04-29 17:50 6.97406 -47.76471 36864 ft 474 kts 65°
2026-04-29 17:50 7.00039 -47.70385 36865 ft 474 kts 65°
2026-04-29 17:51 7.02671 -47.64299 36866 ft 474 kts 64°
2026-04-29 17:51 7.05296 -47.58226 36866 ft 474 kts 64°
2026-04-29 17:52 7.07905 -47.52187 36864 ft 473 kts 64°
2026-04-29 17:52 7.10531 -47.46108 36865 ft 473 kts 65°
2026-04-29 17:53 7.13148 -47.40048 36865 ft 473 kts 65°
2026-04-29 17:53 7.15761 -47.33993 36866 ft 474 kts 65°
2026-04-29 17:54 7.18379 -47.27922 36864 ft 474 kts 65°
2026-04-29 17:54 7.21014 -47.21812 36856 ft 474 kts 65°
2026-04-29 17:55 7.23630 -47.15743 36858 ft 474 kts 65°
2026-04-29 17:55 7.26243 -47.09679 36866 ft 474 kts 65°
2026-04-29 17:56 7.28861 -47.03600 36871 ft 474 kts 65°
2026-04-29 17:56 7.31474 -46.97530 36873 ft 473 kts 65°
2026-04-29 17:57 7.34100 -46.91428 36874 ft 473 kts 65°
2026-04-29 17:57 7.36706 -46.85369 36872 ft 473 kts 65°
2026-04-29 17:58 7.39310 -46.79313 36874 ft 474 kts 65°
2026-04-29 17:58 7.41934 -46.73208 36874 ft 474 kts 65°
2026-04-29 17:59 7.44553 -46.67110 36871 ft 475 kts 65°
2026-04-29 17:59 7.47174 -46.61007 36869 ft 475 kts 65°
2026-04-29 18:00 7.49792 -46.54908 36871 ft 474 kts 65°
2026-04-29 18:00 7.52399 -46.48831 36873 ft 474 kts 65°
2026-04-29 18:01 7.55007 -46.42749 36868 ft 474 kts 65°
2026-04-29 18:01 7.57616 -46.36663 36865 ft 474 kts 65°
2026-04-29 18:02 7.60225 -46.30574 36865 ft 474 kts 65°
2026-04-29 18:02 7.62836 -46.24479 36866 ft 474 kts 65°
2026-04-29 18:03 7.65445 -46.18385 36873 ft 475 kts 65°
2026-04-29 18:03 7.68055 -46.12286 36878 ft 475 kts 65°
2026-04-29 18:04 7.70661 -46.06192 36880 ft 475 kts 65°
2026-04-29 18:04 7.73280 -46.00068 36878 ft 475 kts 65°
2026-04-29 18:05 7.75898 -45.93940 36881 ft 475 kts 65°
2026-04-29 18:05 7.78495 -45.87861 36884 ft 476 kts 66°
2026-04-29 18:06 7.81113 -45.81730 36883 ft 476 kts 66°
2026-04-29 18:06 7.83727 -45.75603 36882 ft 476 kts 65°
2026-04-29 18:07 7.86347 -45.69461 36878 ft 477 kts 66°
2026-04-29 18:07 7.88957 -45.63340 36873 ft 476 kts 66°
2026-04-29 18:08 7.91563 -45.57225 36873 ft 476 kts 65°
2026-04-29 18:08 7.94189 -45.51060 36875 ft 477 kts 65°
2026-04-29 18:09 7.96798 -45.44933 36881 ft 477 kts 66°
2026-04-29 18:09 7.99416 -45.38782 36886 ft 477 kts 66°
2026-04-29 18:10 8.02015 -45.32671 36884 ft 477 kts 66°
2026-04-29 18:10 8.04644 -45.26489 36886 ft 477 kts 66°
2026-04-29 18:11 8.07251 -45.20354 36886 ft 478 kts 66°
2026-04-29 18:11 8.09868 -45.14193 36885 ft 478 kts 66°
2026-04-29 18:12 8.12480 -45.08041 36885 ft 478 kts 66°
2026-04-29 18:12 8.15085 -45.01900 36885 ft 477 kts 66°
2026-04-29 18:13 8.17698 -44.95740 36886 ft 478 kts 66°
2026-04-29 18:13 8.20315 -44.89567 36885 ft 478 kts 66°
2026-04-29 18:14 8.22923 -44.83411 36881 ft 478 kts 66°
2026-04-29 18:14 8.25527 -44.77261 36872 ft 478 kts 66°
2026-04-29 18:15 8.28128 -44.71117 36870 ft 477 kts 66°
2026-04-29 18:15 8.30740 -44.64941 36866 ft 477 kts 66°
2026-04-29 18:16 8.33328 -44.58821 36866 ft 477 kts 66°
2026-04-29 18:16 8.35930 -44.52665 36869 ft 477 kts 66°
2026-04-29 18:17 8.38518 -44.46539 36870 ft 477 kts 66°
2026-04-29 18:17 8.41122 -44.40369 36872 ft 477 kts 66°
2026-04-29 18:18 8.43710 -44.34235 36875 ft 476 kts 66°
2026-04-29 18:18 8.46303 -44.28087 36873 ft 476 kts 66°
2026-04-29 18:19 8.48894 -44.21940 36875 ft 475 kts 66°
2026-04-29 18:19 8.51483 -44.15795 36875 ft 475 kts 66°
2026-04-29 18:20 8.54060 -44.09676 36875 ft 475 kts 66°
2026-04-29 18:20 8.56642 -44.03540 36877 ft 476 kts 66°
2026-04-29 18:21 8.59216 -43.97420 36879 ft 476 kts 66°
2026-04-29 18:21 8.61804 -43.91266 36879 ft 476 kts 66°
2026-04-29 18:22 8.64386 -43.85119 36883 ft 476 kts 66°
2026-04-29 18:22 8.66965 -43.78979 36886 ft 476 kts 66°
2026-04-29 18:23 8.69543 -43.72837 36886 ft 476 kts 66°
2026-04-29 18:23 8.72138 -43.66651 36886 ft 476 kts 66°
2026-04-29 18:24 8.74708 -43.60522 36886 ft 476 kts 66°
2026-04-29 18:24 8.77282 -43.54380 36888 ft 476 kts 66°
2026-04-29 18:25 8.79855 -43.48237 36887 ft 477 kts 66°
2026-04-29 18:25 8.82448 -43.42042 36886 ft 477 kts 66°
2026-04-29 18:26 8.85026 -43.35882 36887 ft 477 kts 66°
2026-04-29 18:26 8.87604 -43.29717 36885 ft 477 kts 66°
2026-04-29 18:27 8.90183 -43.23546 36884 ft 477 kts 66°
2026-04-29 18:27 8.92755 -43.17388 36886 ft 478 kts 66°
2026-04-29 18:28 8.95336 -43.11206 36887 ft 478 kts 66°
2026-04-29 18:28 8.97907 -43.05045 36886 ft 479 kts 66°
2026-04-29 18:29 9.00509 -42.98839 36886 ft 479 kts 65°
2026-04-29 18:29 9.03194 -42.92681 36887 ft 480 kts 65°
2026-04-29 18:30 9.05888 -42.86502 36888 ft 479 kts 65°
2026-04-29 18:30 9.08567 -42.80352 36886 ft 479 kts 65°
2026-04-29 18:31 9.11252 -42.74184 36886 ft 479 kts 65°
2026-04-29 18:31 9.13938 -42.68010 36891 ft 479 kts 65°
2026-04-29 18:32 9.16605 -42.61875 36898 ft 479 kts 65°
2026-04-29 18:32 9.20631 -42.52608 36907 ft 480 kts 65°
2026-04-29 18:33 9.23321 -42.46411 36907 ft 480 kts 65°
2026-04-29 18:33 9.25991 -42.40260 36907 ft 480 kts 65°
2026-04-29 18:34 9.28233 -42.35089 36907 ft 480 kts 65°
2026-04-29 18:34 9.31358 -42.27880 36906 ft 480 kts 65°
2026-04-29 18:35 9.34020 -42.21735 36904 ft 480 kts 65°
2026-04-29 18:35 9.36707 -42.15527 36903 ft 480 kts 65°
2026-04-29 18:36 9.39384 -42.09341 36898 ft 480 kts 65°
2026-04-29 18:36 9.42067 -42.03137 36891 ft 481 kts 65°
2026-04-29 18:37 9.44743 -41.96944 36889 ft 481 kts 65°
2026-04-29 18:37 9.47415 -41.90759 36885 ft 480 kts 65°
2026-04-29 18:38 9.50073 -41.84601 36888 ft 480 kts 65°
2026-04-29 18:38 9.52744 -41.78410 36886 ft 480 kts 65°
2026-04-29 18:39 9.55422 -41.72198 36886 ft 480 kts 65°
2026-04-29 18:39 9.58098 -41.65989 36886 ft 481 kts 65°
2026-04-29 18:40 9.60756 -41.59819 36889 ft 481 kts 65°
2026-04-29 18:40 9.63437 -41.53591 36893 ft 481 kts 65°
2026-04-29 18:41 9.68758 -41.41219 36894 ft 481 kts 65°
2026-04-29 18:42 9.71421 -41.35022 36893 ft 480 kts 65°
2026-04-29 18:42 9.74087 -41.28813 36897 ft 481 kts 66°
2026-04-29 18:43 9.76761 -41.22583 36899 ft 481 kts 66°
2026-04-29 18:43 9.79425 -41.16373 36901 ft 481 kts 66°
2026-04-29 18:44 9.82084 -41.10170 36903 ft 481 kts 66°
2026-04-29 18:44 9.84739 -41.03973 36902 ft 480 kts 66°
2026-04-29 18:45 9.87380 -40.97806 36902 ft 479 kts 66°
2026-04-29 18:45 9.90029 -40.91616 36905 ft 480 kts 66°
2026-04-29 18:46 9.92687 -40.85403 36907 ft 481 kts 66°
2026-04-29 18:46 9.95345 -40.79185 36906 ft 481 kts 66°
2026-04-29 18:47 9.98000 -40.72971 36907 ft 481 kts 66°
2026-04-29 18:47 10.00658 -40.66744 36907 ft 481 kts 66°
2026-04-29 18:48 10.03304 -40.60544 36906 ft 481 kts 66°
2026-04-29 18:48 10.05959 -40.54319 36906 ft 481 kts 66°
2026-04-29 18:49 10.08617 -40.48081 36907 ft 481 kts 66°
2026-04-29 18:49 10.11267 -40.41859 36907 ft 481 kts 66°
2026-04-29 18:50 10.13918 -40.35632 36909 ft 482 kts 66°
2026-04-29 18:50 10.16561 -40.29420 36909 ft 483 kts 66°
2026-04-29 18:51 10.19229 -40.23146 36910 ft 483 kts 66°
2026-04-29 18:51 10.21884 -40.16899 36908 ft 483 kts 66°
2026-04-29 18:52 10.24520 -40.10691 36912 ft 482 kts 66°
2026-04-29 18:52 10.27168 -40.04454 36911 ft 482 kts 66°
2026-04-29 18:53 10.29821 -39.98198 36913 ft 482 kts 66°
2026-04-29 18:53 10.32475 -39.91938 36914 ft 483 kts 66°
2026-04-29 18:54 10.35118 -39.85700 36910 ft 483 kts 66°
2026-04-29 18:54 10.37768 -39.79442 36914 ft 483 kts 66°
2026-04-29 18:55 10.40423 -39.73167 36915 ft 483 kts 66°
2026-04-29 18:55 10.43070 -39.66906 36917 ft 483 kts 66°
2026-04-29 18:56 10.45704 -39.60675 36920 ft 483 kts 66°
2026-04-29 18:56 10.47767 -39.55791 36919 ft 482 kts 66°
2026-04-29 18:57 10.50400 -39.49554 36916 ft 482 kts 66°
2026-04-29 18:57 10.53039 -39.43298 36917 ft 482 kts 66°
2026-04-29 18:58 10.55668 -39.37063 36922 ft 482 kts 66°
2026-04-29 18:58 10.58309 -39.30797 36926 ft 482 kts 67°
2026-04-29 18:59 10.60933 -39.24565 36928 ft 482 kts 67°
2026-04-29 18:59 10.63564 -39.18312 36929 ft 481 kts 67°
2026-04-29 19:00 10.66185 -39.12082 36928 ft 481 kts 67°
2026-04-29 19:00 10.68816 -39.05822 36927 ft 481 kts 67°
2026-04-29 19:01 10.71442 -38.99571 36926 ft 481 kts 67°
2026-04-29 19:01 10.74064 -38.93322 36925 ft 481 kts 67°
2026-04-29 19:02 10.76256 -38.88098 36928 ft 481 kts 67°
2026-04-29 19:02 10.79320 -38.80790 36928 ft 481 kts 67°
2026-04-29 19:03 10.81933 -38.74554 36928 ft 481 kts 67°
2026-04-29 19:03 10.84549 -38.68304 36929 ft 481 kts 67°
2026-04-29 19:04 10.87161 -38.62063 36928 ft 481 kts 67°
2026-04-29 19:04 10.89772 -38.55817 36929 ft 481 kts 67°
2026-04-29 19:05 10.92385 -38.49565 36926 ft 480 kts 67°
2026-04-29 19:05 10.94998 -38.43308 36927 ft 481 kts 67°